Regional Weather Roundup
Issued by NWS Kansas City/Pleasant Hill, MO

Home | Current Version | Previous Version | Graphics & Text | Print | Product List | Glossary Off
Versions: 1 2 3 4 5 6 7 8 9 10 11 12 13 14 15 16 17 18 19 20 21 22 23 24 25 26 27 28 29 30 31 32 33 34 35 36 37 38 39 40 41 42 43 44 45 46 47 48 49 50

000
ASUS43 KEAX 251310
RWREAX

WEATHER ROUNDUP FOR EASTERN KANSAS AND NORTHWEST MISSOURI
NATIONAL WEATHER SERVICE KANSAS CITY/PLEASANT HILL MO
700 AM CST SUN JAN 25 2015

KSZ040-057-103>105-MOZ028-029-037-043-251400-
...KANSAS CITY METROPOLITAN AREA...

CITY           SKY/WX    TMP DP  RH WIND       PRES   REMARKS
K.C. INTL      CLOUDY    39  34  82 NW21G28   29.67R WCI  29
K.C. DOWNTOWN  CLOUDY    43  36  76 NW17G23   29.67R
LEES SUMMIT    CLOUDY    43  36  76 NW15G26   29.66R
OLATHE - IXD   LGT RAIN  40  35  83 NW25G36   29.70R WCI  29
OLATHE - OJC   CLOUDY    42  36  79 NW16G25   29.67R WCI  34
LAWRENCE       CLOUDY    41  34  76 NW26G33   29.73R WCI  30

$$

MOZ001>008-011>017-020>025-030>033-038>040-044>046-053-054-251400-
...NORTHERN AND CENTRAL MISSOURI...

CITY           SKY/WX    TMP DP  RH WIND       PRES   REMARKS
ST. JOSEPH     LGT RAIN  37  34  89 NW25G35   29.70R WCI  25
WARRENSBURG    CLOUDY    43  37  81 W10G16    29.64R
WHITEMAN AFB   CLOUDY    45  38  78 NW13      29.62S
CLINTON        CLOUDY    45  39  81 W13       29.65S
SEDALIA        CLOUDY    46  39  76 NW15      29.62S
WARSAW         NOT AVBL
MARSHALL       PTCLDY    45  39  81 W10G16    29.62R
CHILLICOTHE      N/A     42  38  85 NW9G18    29.62R
KIRKSVILLE     CLOUDY    42  41  96 W6        29.56R

$$

MOZ041-047>049-056>058-063>065-088>090-097-251400-
...EASTERN AND SOUTHERN MISSOURI...

CITY           SKY/WX    TMP DP  RH WIND       PRES   REMARKS
ST. LOUIS INTL LGT RAIN  46  42  86 SW7       29.60S FOG
SPIRIT OF STL  CLOUDY    45  41  86 S5        29.59S
COLUMBIA       MOCLDY    44  42  93 W13       29.59S
JEFFERSON CITY MOCLDY    46  40  79 W12       29.61R
MEXICO         CLOUDY   N/A N/A N/A W8        29.57S
HANNIBAL       LGT SNOW  43  39  87 CALM      29.57S
ROLLA          CLOUDY    45  40  82 W9        29.59S
OSAGE BEACH    CLOUDY    45  39  81 W7        29.62S
SPRINGFIELD    CLOUDY    46  37  71 W9        29.66S
BRANSON        CLOUDY    45  39  81 W12       29.70S
NEVADA         MOCLDY    45  36  70 W13G21    29.71R
JOPLIN         CLOUDY    48  35  60 NW9       29.73R
WEST PLAINS    CLOUDY    43  38  82 SW12      29.66S

$$

IAZ060-094-KSZ022-034>040-054-083-096-NEZ052-066-093-251400-
...KANSAS...SOUTHEAST NEBRASKA AND IOWA...

CITY           SKY/WX    TMP DP  RH WIND       PRES   REMARKS
TOPEKA         CLOUDY    41  31  67 NW22G37   29.76R WCI  31
MANHATTAN      CLOUDY    42  33  70 N8G22     29.82R
EMPORIA        CLOUDY    44  33  65 NW25G40   29.78R WCI  35
CHANUTE        CLOUDY    47  35  63 NW22G33   29.75R
WICHITA        CLOUDY    47  31  53 NW21G29   29.88R
OMAHA          CLOUDY    36  32  85 N25G32    29.77R WCI  24
LINCOLN        CLOUDY    36  31  82 N25G31    29.83R WCI  24
FALLS CITY     CLOUDY    37  31  78 NW17G31   29.74R WCI  27
LAMONI         LGT RAIN  37  35  92 N16       29.61R WCI  28
DES MOINES     LGT RAIN  37  33  85 N12       29.66R WCI  29

$$




USA.gov is the U.S. government's official web portal to all federal, state and local government web resources and services.